EW4438 Weather Reports


time (UTC)temp
C
wind
direction
speed
KPH
gust
KPH
rain 1hr
cm
rain 24hr
cm
rain mn
cm
humidity
%
barometer
mb
20260505223035 17 337 8.0 9.7 0.00 0.00 0.00 66 1022.8
20260505222133 17 331 3.2 8.0 0.00 0.00 0.00 65 1022.8
20260505221133 17 337 4.8 6.4 0.00 0.00 0.00 66 1023.2
20260505220133 18 309 1.6 6.4 0.00 0.00 0.00 67 1022.8
20260505215133 17 343 4.8 8.0 0.00 0.00 0.00 66 1023.2
20260505214233 17 360 4.8 6.4 0.00 0.00 0.00 66 1023.2
20260505213232 17 337 4.8 6.4 0.00 0.00 0.00 65 1023.2
20260505212235 18 308 3.2 6.4 0.00 0.00 0.00 64 1023.2
20260505211233 19 232 1.6 9.7 0.00 0.00 0.00 64 1023.2
20260505210232 17 315 3.2 8.0 0.00 0.00 0.00 65 1023.5
20260505205133 18 269 4.8 6.4 0.00 0.00 0.00 65 1023.5
20260505203133 17 292 0.0 0.0 0.00 0.00 0.00 68 1023.5
20260505200233 17 337 4.8 6.4 0.00 0.00 0.00 67 1023.5
20260505195234 16 360 3.2 6.4 0.00 0.00 0.00 69 1023.8
20260505194234 17 337 1.6 6.4 0.00 0.00 0.00 72 1023.8
20260505193232 16 360 1.6 4.8 0.00 0.00 0.00 73 1023.8
20260505192233 16 22 1.6 4.8 0.00 0.00 0.00 73 1023.8
20260505191248 16 78 4.8 6.4 0.00 0.00 0.00 71 1023.8
20260505190334 17 180 0.0 0.0 0.00 0.00 0.00 70 1023.8
20260505185333 17 228 0.0 3.2 0.00 0.00 0.00 70 1024.2
20260505184333 16 67 0.0 1.6 0.00 0.00 0.00 73 1024.2
20260505184234 16 67 0.0 0.0 0.00 0.00 0.00 72 1024.2
20260505181331 16 225 0.0 0.0 0.00 0.00 0.00 73 1024.2
20260505180333 16 206 1.6 8.0 0.00 0.00 0.00 74 1023.8
20260505174434 16 201 0.0 4.8 0.00 0.00 0.00 73 1023.8
20260505173532 16 202 0.0 1.6 0.00 0.00 0.00 72 1023.8
20260505172531 15 157 0.0 0.0 0.00 0.00 0.00 71 1023.8
20260505171534 15 315 1.6 6.4 0.00 0.00 0.00 73 1023.5
20260505170537 15 266 4.8 8.0 0.00 0.00 0.00 71 1023.5
20260505165631 16 251 3.2 6.4 0.00 0.00 0.00 73 1023.6
20260505164634 16 247 4.8 8.0 0.00 0.00 0.00 75 1023.8
20260505163633 15 270 0.0 1.6 0.00 0.00 0.00 74 1023.5
20260505163532 15 270 3.2 8.0 0.00 0.00 0.00 74 1023.5
20260505162533 15 182 3.2 8.0 0.00 0.00 0.00 76 1023.5
20260505161633 15 292 0.0 4.8 0.00 0.00 0.00 79 1023.5
20260505152735 13 112 0.0 1.6 0.00 0.00 0.00 84 1023.5
20260505151832 13 202 0.0 0.0 0.00 0.00 0.00 86 1023.5
20260505140134 13 121 0.0 4.8 0.00 0.00 0.00 87 1023.2
20260505130231 13 158 0.0 8.0 0.00 0.00 0.00 88 1022.8
20260505124331 13 270 0.0 0.0 0.00 0.00 0.00 88 1022.8
20260505123333 13 225 0.0 0.0 0.00 0.00 0.00 87 1022.8
20260505122332 13 225 0.0 0.0 0.00 0.00 0.00 87 1022.8
20260505121335 13 212 0.0 0.0 0.00 0.00 0.00 87 1022.5
20260505120334 13 247 0.0 0.0 0.00 0.00 0.00 86 1022.5
20260505115334 13 247 0.0 0.0 0.00 0.00 0.00 86 1022.2
20260505114432 13 225 0.0 0.0 0.00 0.00 0.00 86 1022.5
20260505113433 13 202 0.0 0.0 0.00 0.00 0.00 86 1022.2
20260505112448 13 202 0.0 0.0 0.00 0.00 0.00 86 1022.5
20260505111533 13 202 0.0 0.0 0.00 0.00 0.00 86 1022.2
20260505110532 13 202 0.0 0.0 0.00 0.00 0.00 86 1022.2
20260505101533 13 270 0.0 0.0 0.00 0.00 0.00 88 1021.8
20260505100534 13 270 0.0 0.0 0.00 0.00 0.00 89 1022.2
20260505095534 13 270 0.0 0.0 0.00 0.00 0.00 91 1022.2
20260505094632 13 315 0.0 0.0 0.00 0.00 0.00 91 1022.2
20260505093632 13 315 0.0 0.0 0.00 0.00 0.00 89 1022.2
20260505091633 13 315 0.0 0.0 0.00 0.00 0.00 89 1021.5
20260505090635 13 315 0.0 0.0 0.00 0.00 0.00 88 1021.5
20260505085633 13 315 0.0 0.0 0.00 0.00 0.00 88 1021.5
20260505084648 13 315 0.0 0.0 0.00 0.00 0.00 87 1021.5
20260505083732 13 315 0.0 0.0 0.00 0.00 0.00 87 1021.5
20260505082731 13 315 0.0 0.0 0.00 0.00 0.00 86 1021.5
20260505080732 14 315 0.0 0.0 0.00 0.00 0.00 84 1021.1
20260505074732 14 337 1.6 4.8 0.00 0.00 0.00 83 1021.1
20260505073732 15 337 3.2 6.4 0.00 0.00 0.00 83 1020.8
20260505065739 16 252 3.2 6.4 0.00 0.00 0.00 80 1020.4
20260505064838 16 247 1.6 6.4 0.00 0.00 0.00 80 1020.4
20260505063839 16 225 0.0 3.2 0.00 0.00 0.00 82 1019.8
20260505062840 16 211 0.0 4.8 0.00 0.00 0.00 81 1019.8
20260505061840 16 292 0.0 0.0 0.00 0.00 0.00 79 1019.8
20260505060938 16 270 1.6 4.8 0.00 0.00 0.00 79 1019.4
20260505055837 16 250 0.0 0.0 0.00 0.00 0.00 78 1019.4
20260505054840 17 310 3.2 8.0 0.00 0.00 0.00 77 1019.4
20260505052839 17 315 0.0 0.0 0.00 0.00 0.00 74 1019.1
20260505051839 17 239 0.0 1.6 0.00 0.00 0.00 73 1019.1
20260505041037 20 202 3.2 8.0 0.00 0.00 0.00 70 1017.7
20260505040937 20 249 4.8 9.7 0.00 0.00 0.00 70 1017.7
20260505035957 20 231 3.2 8.0 0.00 0.00 0.00 70 1017.7
20260505034941 20 233 3.2 12.9 0.00 0.00 0.00 70 1017.4
20260505034038 20 230 4.8 12.9 0.00 0.00 0.00 70 1017.0
20260505033039 21 212 3.2 8.0 0.00 0.00 0.00 70 1017.0
20260505032054 21 232 1.6 8.0 0.00 0.00 0.00 70 1016.7
20260505030142 21 207 3.2 12.9 0.00 0.00 0.00 68 1016.7
20260505025140 21 222 1.6 8.0 0.00 0.00 0.00 66 1016.3
20260505024137 22 180 1.6 4.8 0.00 0.00 0.00 63 1016.3
20260505023139 22 270 0.0 1.6 0.00 0.00 0.00 61 1016.3
20260505022239 22 215 3.2 6.4 0.00 0.00 0.00 58 1016.3
20260505020353 25 225 4.8 11.3 0.00 0.00 0.00 54 1016.3
20260505015439 25 209 4.8 11.3 0.00 0.00 0.00 54 1016.3
20260505013539 25 223 3.2 11.3 0.00 0.00 0.00 55 1016.3
20260505011539 25 255 6.4 11.3 0.00 0.00 0.00 52 1016.3
20260505010539 26 242 1.6 6.4 0.00 0.00 0.00 53 1016.3
20260505005540 25 203 4.8 9.7 0.00 0.00 0.00 53 1016.3
20260505004554 25 244 6.4 11.3 0.00 0.00 0.00 52 1016.7
20260505003638 26 260 8.0 16.1 0.00 0.00 0.00 52 1016.7
20260505001654 24 260 8.0 12.9 0.00 0.00 0.00 50 1016.7
20260505001537 24 272 8.0 11.3 0.00 0.00 0.00 50 1016.7
20260505000540 25 253 4.8 11.3 0.00 0.00 0.00 50 1016.3
20260504235538 25 247 6.4 11.3 0.00 0.00 0.00 51 1016.7
20260504234538 25 138 0.0 6.4 0.00 0.00 0.00 53 1016.7
20260504233540 24 277 6.4 14.5 0.00 0.00 0.00 51 1017.0
20260504232539 24 181 3.2 8.0 0.00 0.00 0.00 50 1016.7
20260504232438 25 226 4.8 11.3 0.00 0.00 0.00 50 1016.7
20260504231438 25 257 6.4 12.9 0.00 0.00 0.00 51 1017.0
20260504230438 24 271 9.7 14.5 0.00 0.00 0.00 51 1017.0
20260504225537 25 236 3.2 11.3 0.00 0.00 0.00 53 1017.0
20260504223638 25 257 4.8 11.3 0.00 0.00 0.00 51 1017.1